SWR11EM LSZH-EDDH

Flight info

Callsign SWR11EM
Flight time 1h 17m
Altitude 22000
Route DEGES2X DEGES Z1 ETAGO Z3 LBU/N0471F320 N851 RIMKI/N0430F240 N851 OSBIT P605 NOLGO NOLGO3S
Aircraft A359/H-SDE2E3GHIJ3J4J5LM1ORWXY/LB1D1

Departure

Time 2026-05-04 18:33
Airport Zürich Airport (LSZH)

Arrival

Time 2026-05-04 19:51
Airport Hamburg Helmut Schmidt Airport (EDDH)
Time Latitude Longitude Altitude Speed Heading
2026-05-04 17:53 47.46187 8.55552 1414 ft 0 kts 186°
2026-05-04 18:01 47.45166 8.55898 1420 ft 0 kts 186°
2026-05-04 18:02 47.46172 8.55588 1416 ft 0 kts 186°
2026-05-04 18:25 47.46184 8.55590 1414 ft 4 kts 186°
2026-05-04 18:25 47.46211 8.55595 1411 ft 4 kts 186°
2026-05-04 18:25 47.46233 8.55598 1412 ft 4 kts 172°
2026-05-04 18:26 47.46248 8.55583 1409 ft 5 kts 101°
2026-05-04 18:26 47.46251 8.55546 1411 ft 5 kts 97°
2026-05-04 18:26 47.46255 8.55510 1412 ft 4 kts 96°
2026-05-04 18:26 47.46255 8.55509 1412 ft 0 kts 96°
2026-05-04 18:29 47.46252 8.55549 1411 ft 7 kts 96°
2026-05-04 18:29 47.46242 8.55694 1407 ft 23 kts 96°
2026-05-04 18:29 47.46220 8.55944 1418 ft 24 kts 110°
2026-05-04 18:29 47.46115 8.56124 1422 ft 23 kts 137°
2026-05-04 18:30 47.45879 8.56442 1429 ft 22 kts 137°
2026-05-04 18:30 47.45796 8.56617 1425 ft 21 kts 100°
2026-05-04 18:30 47.45781 8.56837 1428 ft 22 kts 96°
2026-05-04 18:31 47.45757 8.56986 1430 ft 8 kts 124°
2026-05-04 18:31 47.45703 8.57025 1431 ft 10 kts 179°
2026-05-04 18:31 47.45666 8.56953 1430 ft 10 kts 269°
2026-05-04 18:31 47.45669 8.56923 1430 ft 0 kts 278°
2026-05-04 18:32 47.45669 8.56920 1430 ft 0 kts 278°
2026-05-04 18:32 47.45687 8.56696 1424 ft 62 kts 276°
2026-05-04 18:32 47.45758 8.55651 1411 ft 140 kts 275°
2026-05-04 18:33 47.45890 8.53928 1621 ft 188 kts 275°
2026-05-04 18:33 47.46052 8.52000 2594 ft 190 kts 277°
2026-05-04 18:33 47.46193 8.50029 3580 ft 198 kts 272°
2026-05-04 18:33 47.45827 8.48048 4200 ft 207 kts 240°
2026-05-04 18:34 47.44950 8.46295 4756 ft 217 kts 232°
2026-05-04 18:34 47.44052 8.44507 5106 ft 219 kts 240°
2026-05-04 18:34 47.43473 8.42342 5488 ft 222 kts 252°
2026-05-04 18:34 47.43072 8.40232 5833 ft 224 kts 253°
2026-05-04 18:35 47.42520 8.38076 6136 ft 226 kts 236°
2026-05-04 18:35 47.41385 8.36500 6627 ft 227 kts 204°
2026-05-04 18:35 47.39860 8.36061 7519 ft 224 kts 175°
2026-05-04 18:35 47.38402 8.36818 8435 ft 227 kts 146°
2026-05-04 18:36 47.37405 8.38626 9293 ft 235 kts 115°
2026-05-04 18:36 47.37211 8.41051 10101 ft 247 kts 82°
2026-05-04 18:36 47.37998 8.43327 10794 ft 258 kts 45°
2026-05-04 18:36 47.39502 8.44704 11541 ft 261 kts 22°
2026-05-04 18:37 47.41136 8.45930 12268 ft 268 kts 36°
2026-05-04 18:37 47.42445 8.47918 13028 ft 275 kts 52°
2026-05-04 18:37 47.43635 8.50262 13426 ft 296 kts 54°
2026-05-04 18:37 47.44872 8.52827 13811 ft 318 kts 57°
2026-05-04 18:38 47.45762 8.55900 14137 ft 335 kts 82°
2026-05-04 18:38 47.45980 8.59393 14526 ft 351 kts 90°
2026-05-04 18:38 47.46078 8.63086 14896 ft 368 kts 90°
2026-05-04 18:38 47.46189 8.66940 15430 ft 380 kts 89°
2026-05-04 18:39 47.46320 8.70819 16105 ft 386 kts 89°
2026-05-04 18:39 47.46460 8.74807 16826 ft 392 kts 89°
2026-05-04 18:39 47.46604 8.78861 17537 ft 397 kts 89°
2026-05-04 18:39 47.46569 8.82945 18266 ft 399 kts 99°
2026-05-04 18:40 47.46073 8.86995 18933 ft 402 kts 105°
2026-05-04 18:40 47.45471 8.91045 19585 ft 406 kts 105°
2026-05-04 18:40 47.44871 8.95152 20284 ft 411 kts 105°
2026-05-04 18:40 47.44275 8.99285 21024 ft 414 kts 105°
2026-05-04 18:41 47.43681 9.03412 21651 ft 418 kts 105°
2026-05-04 18:41 47.43076 9.07606 21950 ft 418 kts 105°
2026-05-04 18:41 47.42473 9.11780 21996 ft 415 kts 105°
2026-05-04 18:41 47.41933 9.15959 21986 ft 417 kts 100°
2026-05-04 18:42 47.41968 9.20260 21987 ft 422 kts 82°
2026-05-04 18:42 47.42860 9.24394 21999 ft 425 kts 67°
2026-05-04 18:42 47.44174 9.28307 22004 ft 426 kts 63°
2026-05-04 18:42 47.45639 9.32129 22002 ft 427 kts 60°
2026-05-04 18:43 47.47212 9.35849 21991 ft 428 kts 54°
2026-05-04 18:43 47.49218 9.39089 21978 ft 428 kts 40°
2026-05-04 18:43 47.51713 9.41463 21986 ft 426 kts 24°
2026-05-04 18:43 47.54401 9.43161 21981 ft 426 kts 19°
2026-05-04 18:44 47.57199 9.44579 21971 ft 425 kts 13°
2026-05-04 18:44 47.58169 9.44899 21966 ft 424 kts
2026-05-04 18:44 47.63025 9.45546 21965 ft 421 kts
2026-05-04 18:44 47.65954 9.45706 21964 ft 420 kts 359°
2026-05-04 18:45 47.68869 9.45814 21960 ft 419 kts 359°
2026-05-04 18:45 47.71787 9.45915 21971 ft 419 kts 359°
2026-05-04 18:45 47.74708 9.46029 21975 ft 419 kts 359°
2026-05-04 18:45 47.77623 9.46159 21961 ft 419 kts 359°
2026-05-04 18:46 47.80503 9.46302 21968 ft 419 kts 359°
2026-05-04 18:46 47.83407 9.46388 21969 ft 419 kts 358°
2026-05-04 18:46 47.86328 9.46385 21968 ft 418 kts 357°
2026-05-04 18:46 47.89238 9.46347 21969 ft 418 kts 357°
2026-05-04 18:47 47.92145 9.46303 21965 ft 418 kts 357°
2026-05-04 18:47 47.95050 9.46268 21965 ft 418 kts 357°
2026-05-04 18:47 47.97957 9.46243 21964 ft 418 kts 357°
2026-05-04 18:47 48.00861 9.46227 21968 ft 418 kts 357°
2026-05-04 18:48 48.03768 9.46217 21965 ft 418 kts 358°
2026-05-04 18:48 48.06675 9.46211 21963 ft 417 kts 358°
2026-05-04 18:48 48.09578 9.46205 21962 ft 417 kts 358°
2026-05-04 18:48 48.12481 9.46200 21960 ft 417 kts 358°
2026-05-04 18:49 48.15377 9.46194 21962 ft 417 kts 358°
2026-05-04 18:49 48.18277 9.46187 21962 ft 417 kts 358°
2026-05-04 18:49 48.21143 9.46182 21961 ft 417 kts 358°
2026-05-04 18:49 48.24091 9.46186 21963 ft 417 kts 358°
2026-05-04 18:50 48.26942 9.46193 21981 ft 417 kts 358°
2026-05-04 18:50 48.29843 9.46198 21967 ft 418 kts 358°
2026-05-04 18:50 48.32752 9.46203 21966 ft 418 kts 358°
2026-05-04 18:50 48.35663 9.46207 21968 ft 418 kts 358°
2026-05-04 18:51 48.38573 9.46209 21970 ft 418 kts 358°
2026-05-04 18:51 48.41487 9.46211 21971 ft 418 kts 358°
2026-05-04 18:51 48.44391 9.46214 21970 ft 418 kts 358°
2026-05-04 18:51 48.47304 9.46216 21969 ft 418 kts 358°
2026-05-04 18:52 48.50214 9.46219 21969 ft 418 kts 358°
2026-05-04 18:52 48.53125 9.46222 21968 ft 418 kts 358°
2026-05-04 18:52 48.56029 9.46220 21969 ft 418 kts 358°
2026-05-04 18:52 48.58897 9.46192 21970 ft 418 kts 357°
2026-05-04 18:53 48.61809 9.46151 21971 ft 418 kts 357°
2026-05-04 18:53 48.64715 9.46107 21971 ft 418 kts 357°
2026-05-04 18:53 48.67619 9.46065 21971 ft 418 kts 357°
2026-05-04 18:53 48.70527 9.45981 21971 ft 417 kts 354°
2026-05-04 18:54 48.73365 9.45239 21971 ft 412 kts 341°
2026-05-04 18:54 48.76087 9.43878 21970 ft 411 kts 337°
2026-05-04 18:54 48.78745 9.42308 21972 ft 410 kts 335°
2026-05-04 18:54 48.81375 9.40623 21970 ft 410 kts 334°
2026-05-04 18:55 48.83953 9.38916 21970 ft 410 kts 333°
2026-05-04 18:55 48.89188 9.35459 21964 ft 411 kts 335°
2026-05-04 18:55 48.91944 9.34296 21970 ft 414 kts 348°
2026-05-04 18:56 48.94809 9.33719 21972 ft 416 kts 352°
2026-05-04 18:56 48.97697 9.33361 21970 ft 417 kts 354°
2026-05-04 18:56 49.00591 9.33124 21969 ft 417 kts 355°
2026-05-04 18:56 49.03489 9.32935 21971 ft 417 kts 355°
2026-05-04 18:57 49.06394 9.32752 21967 ft 417 kts 355°
2026-05-04 18:57 49.09289 9.32558 21966 ft 417 kts 355°
2026-05-04 18:57 49.12188 9.32350 21965 ft 417 kts 355°
2026-05-04 18:57 49.15085 9.32129 21969 ft 417 kts 355°
2026-05-04 18:58 49.17944 9.31903 21969 ft 418 kts 355°
2026-05-04 18:58 49.20859 9.31667 21964 ft 420 kts 355°
2026-05-04 18:58 49.23779 9.31435 21967 ft 421 kts 355°
2026-05-04 18:58 49.26705 9.31209 21967 ft 421 kts 355°
2026-05-04 18:59 49.29628 9.30982 21972 ft 421 kts 355°
2026-05-04 18:59 49.32551 9.30756 21967 ft 421 kts 355°
2026-05-04 18:59 49.35478 9.30708 21971 ft 422 kts
2026-05-04 18:59 49.38411 9.30978 21971 ft 422 kts
2026-05-04 19:00 49.41342 9.31345 21970 ft 423 kts
2026-05-04 19:00 49.44270 9.31768 21971 ft 423 kts
2026-05-04 19:00 49.47197 9.32215 21972 ft 423 kts
2026-05-04 19:00 49.50085 9.32662 21971 ft 423 kts
2026-05-04 19:01 49.53011 9.33110 21971 ft 423 kts
2026-05-04 19:01 49.55939 9.33554 21968 ft 423 kts
2026-05-04 19:01 49.58864 9.33994 21968 ft 423 kts
2026-05-04 19:01 49.61794 9.34433 21969 ft 422 kts
2026-05-04 19:02 49.64715 9.34869 21969 ft 422 kts
2026-05-04 19:02 49.67642 9.35305 21968 ft 422 kts
2026-05-04 19:02 49.70561 9.35742 21970 ft 422 kts
2026-05-04 19:02 49.73455 9.36581 21968 ft 424 kts 16°
2026-05-04 19:03 49.76145 9.38439 21969 ft 425 kts 32°
2026-05-04 19:03 49.78584 9.41017 21968 ft 425 kts 37°
2026-05-04 19:03 49.80879 9.43810 21971 ft 425 kts 40°
2026-05-04 19:03 49.83139 9.46762 21966 ft 424 kts 41°
2026-05-04 19:04 49.85363 9.49746 21969 ft 423 kts 41°
2026-05-04 19:04 49.87583 9.52730 21967 ft 422 kts 41°
2026-05-04 19:04 49.89813 9.55707 21969 ft 422 kts 41°
2026-05-04 19:04 49.92050 9.58668 21962 ft 422 kts 40°
2026-05-04 19:05 49.94289 9.61613 21965 ft 422 kts 40°
2026-05-04 19:05 49.96534 9.64556 21965 ft 422 kts 40°
2026-05-04 19:05 49.98781 9.67498 21965 ft 422 kts 40°
2026-05-04 19:05 50.01028 9.70441 21966 ft 423 kts 40°
2026-05-04 19:06 50.03282 9.73390 22071 ft 422 kts 39°
2026-05-04 19:06 50.04841 9.75140 21989 ft 416 kts 31°
2026-05-04 19:06 50.07507 9.77064 21968 ft 431 kts 16°
2026-05-04 19:06 50.10485 9.77841 21967 ft 438 kts
2026-05-04 19:07 50.14527 9.77856 21963 ft 439 kts 355°
2026-05-04 19:07 50.17576 9.77566 21963 ft 439 kts 353°
2026-05-04 19:07 50.20624 9.77179 21963 ft 439 kts 353°
2026-05-04 19:07 50.23668 9.76777 21967 ft 439 kts 353°
2026-05-04 19:08 50.26710 9.76398 21970 ft 439 kts 353°
2026-05-04 19:08 50.28769 9.76156 21965 ft 439 kts 353°
2026-05-04 19:08 50.31777 9.75823 21966 ft 439 kts 354°
2026-05-04 19:08 50.34827 9.75504 21964 ft 439 kts 354°
2026-05-04 19:09 50.37877 9.75194 21969 ft 439 kts 354°
2026-05-04 19:09 50.40921 9.74889 21967 ft 439 kts 354°
2026-05-04 19:09 50.43969 9.74584 21972 ft 439 kts 354°
2026-05-04 19:09 50.48011 9.74178 21977 ft 440 kts 354°
2026-05-04 19:10 50.50077 9.73970 21969 ft 440 kts 354°
2026-05-04 19:10 50.52094 9.73766 21967 ft 440 kts 354°
2026-05-04 19:10 50.56143 9.73354 21968 ft 440 kts 354°
2026-05-04 19:10 50.59195 9.73043 21968 ft 440 kts 354°
2026-05-04 19:11 50.62243 9.72732 21971 ft 440 kts 354°
2026-05-04 19:11 50.65298 9.72419 21968 ft 440 kts 354°
2026-05-04 19:11 50.68350 9.72110 21968 ft 440 kts 354°
2026-05-04 19:11 50.71403 9.71798 21969 ft 440 kts 353°
2026-05-04 19:12 50.74454 9.71480 21968 ft 440 kts 353°
2026-05-04 19:12 50.80562 9.70838 21968 ft 440 kts 353°
2026-05-04 19:12 50.83608 9.70519 21968 ft 440 kts 353°
2026-05-04 19:13 50.86658 9.70199 21970 ft 440 kts 353°
2026-05-04 19:13 50.89717 9.69914 21973 ft 440 kts 355°
2026-05-04 19:13 50.92781 9.69774 21971 ft 441 kts 356°
2026-05-04 19:13 50.95807 9.69715 21973 ft 441 kts 357°
2026-05-04 19:14 50.98873 9.69676 21966 ft 441 kts 357°
2026-05-04 19:14 51.01946 9.69629 21970 ft 441 kts 356°
2026-05-04 19:14 51.05011 9.69566 21974 ft 441 kts 356°
2026-05-04 19:14 51.08079 9.69488 21970 ft 441 kts 356°
2026-05-04 19:15 51.11142 9.69399 21975 ft 441 kts 356°
2026-05-04 19:15 51.14208 9.69314 21974 ft 441 kts 357°
2026-05-04 19:15 51.17272 9.69779 21983 ft 445 kts
2026-05-04 19:15 51.20244 9.71173 21977 ft 446 kts 18°
2026-05-04 19:16 51.23157 9.72870 21975 ft 446 kts 19°
2026-05-04 19:16 51.26062 9.74599 21976 ft 446 kts 19°
2026-05-04 19:16 51.28969 9.76336 21976 ft 446 kts 19°
2026-05-04 19:16 51.31832 9.78049 21977 ft 446 kts 19°
2026-05-04 19:17 51.34736 9.79789 21973 ft 446 kts 19°
2026-05-04 19:17 51.37646 9.81532 21987 ft 446 kts 19°
2026-05-04 19:17 51.40548 9.83273 21984 ft 446 kts 19°
2026-05-04 19:17 51.43449 9.85012 21982 ft 444 kts 19°
2026-05-04 19:18 51.46345 9.86747 21977 ft 444 kts 19°
2026-05-04 19:18 51.49233 9.88480 21980 ft 444 kts 19°
2026-05-04 19:18 51.52122 9.90215 21977 ft 443 kts 19°
2026-05-04 19:18 51.54975 9.91930 21983 ft 443 kts 19°
2026-05-04 19:19 51.57864 9.93669 21981 ft 444 kts 19°
2026-05-04 19:19 51.60752 9.95409 21976 ft 444 kts 19°
2026-05-04 19:19 51.63643 9.97151 21985 ft 444 kts 19°
2026-05-04 19:19 51.66532 9.98889 21985 ft 443 kts 19°
2026-05-04 19:20 51.69419 10.00626 21983 ft 443 kts 19°
2026-05-04 19:20 51.72307 10.02365 21981 ft 443 kts 19°
2026-05-04 19:20 51.75193 10.04107 21981 ft 443 kts 19°
2026-05-04 19:20 51.78082 10.05850 21977 ft 443 kts 19°
2026-05-04 19:21 51.80928 10.07570 21981 ft 443 kts 19°
2026-05-04 19:21 51.83813 10.09316 21979 ft 443 kts 19°
2026-05-04 19:21 51.86702 10.11066 21989 ft 444 kts 19°
2026-05-04 19:21 51.89596 10.12824 21976 ft 446 kts 19°
2026-05-04 19:22 51.92502 10.14591 21978 ft 446 kts 19°
2026-05-04 19:22 51.95410 10.16361 21980 ft 446 kts 19°
2026-05-04 19:22 51.98316 10.18132 21981 ft 446 kts 19°
2026-05-04 19:22 52.01221 10.19905 21982 ft 446 kts 19°
2026-05-04 19:23 52.04161 10.21520 21971 ft 445 kts 13°
2026-05-04 19:23 52.07205 10.22312 21983 ft 442 kts
2026-05-04 19:23 52.10270 10.22519 21973 ft 441 kts 358°
2026-05-04 19:23 52.13295 10.22460 21966 ft 441 kts 355°
2026-05-04 19:24 52.16365 10.22259 21961 ft 441 kts 354°
2026-05-04 19:24 52.19431 10.22003 21963 ft 441 kts 354°
2026-05-04 19:24 52.22492 10.21741 21962 ft 441 kts 354°
2026-05-04 19:24 52.25559 10.21493 21965 ft 441 kts 354°
2026-05-04 19:25 52.28628 10.21264 21967 ft 441 kts 354°
2026-05-04 19:25 52.31690 10.21051 21967 ft 441 kts 355°
2026-05-04 19:25 52.34760 10.20848 21968 ft 441 kts 355°
2026-05-04 19:25 52.37787 10.20652 21962 ft 441 kts 355°
2026-05-04 19:26 52.40854 10.20454 21962 ft 441 kts 355°
2026-05-04 19:26 52.43922 10.20254 21961 ft 441 kts 355°
2026-05-04 19:26 52.46989 10.20054 21962 ft 441 kts 354°
2026-05-04 19:26 52.50057 10.19853 21964 ft 441 kts 354°
2026-05-04 19:27 52.53126 10.19651 21965 ft 441 kts 354°
2026-05-04 19:27 52.56195 10.19449 21964 ft 441 kts 354°
2026-05-04 19:27 52.59262 10.19247 21972 ft 441 kts 354°
2026-05-04 19:27 52.62332 10.19044 21964 ft 441 kts 354°
2026-05-04 19:28 52.65398 10.18841 21966 ft 441 kts 354°
2026-05-04 19:28 52.68420 10.18640 21963 ft 441 kts 354°
2026-05-04 19:28 52.71485 10.18437 21963 ft 441 kts 354°
2026-05-04 19:28 52.74552 10.18233 21962 ft 441 kts 354°
2026-05-04 19:29 52.77620 10.18028 21962 ft 441 kts 354°
2026-05-04 19:29 52.80687 10.17824 21965 ft 441 kts 354°
2026-05-04 19:29 52.83746 10.17621 21850 ft 439 kts 354°
2026-05-04 19:29 52.86791 10.17418 21594 ft 437 kts 354°
2026-05-04 19:30 52.89813 10.17216 21185 ft 431 kts 354°
2026-05-04 19:30 52.92793 10.17018 20689 ft 425 kts 354°
2026-05-04 19:30 52.95736 10.16820 20128 ft 422 kts 354°
2026-05-04 19:30 52.98611 10.16626 19543 ft 418 kts 355°
2026-05-04 19:31 53.01501 10.16432 18976 ft 413 kts 355°
2026-05-04 19:31 53.04361 10.16239 18395 ft 409 kts 355°
2026-05-04 19:31 53.07194 10.16048 17769 ft 405 kts 355°
2026-05-04 19:31 53.09988 10.15859 17183 ft 399 kts 355°
2026-05-04 19:32 53.12747 10.15673 16615 ft 394 kts 355°
2026-05-04 19:32 53.15475 10.15488 16050 ft 391 kts 355°
2026-05-04 19:32 53.18179 10.15285 15497 ft 387 kts 354°
2026-05-04 19:32 53.20824 10.14694 14969 ft 380 kts 346°
2026-05-04 19:33 53.23381 10.13732 14469 ft 374 kts 344°
2026-05-04 19:33 53.25894 10.12722 13956 ft 369 kts 344°
2026-05-04 19:33 53.28340 10.11729 13434 ft 364 kts 344°
2026-05-04 19:33 53.30790 10.10732 12875 ft 360 kts 344°
2026-05-04 19:34 53.33208 10.09758 12348 ft 355 kts 344°
2026-05-04 19:34 53.35595 10.08814 11802 ft 351 kts 344°
2026-05-04 19:34 53.37964 10.07878 11239 ft 348 kts 344°
2026-05-04 19:34 53.40298 10.06955 10612 ft 338 kts 344°
2026-05-04 19:35 53.42533 10.06077 9993 ft 322 kts 344°
2026-05-04 19:35 53.44665 10.05246 9405 ft 308 kts 344°
2026-05-04 19:35 53.46714 10.04444 8817 ft 296 kts 344°
2026-05-04 19:35 53.48674 10.03815 8262 ft 289 kts 353°
2026-05-04 19:36 53.50649 10.04324 7742 ft 290 kts 20°
2026-05-04 19:36 53.52327 10.06194 7221 ft 293 kts 43°
2026-05-04 19:36 53.53719 10.08704 6716 ft 295 kts 48°
2026-05-04 19:36 53.55063 10.11319 6191 ft 296 kts 49°
2026-05-04 19:37 53.56393 10.13927 5821 ft 291 kts 49°
2026-05-04 19:37 53.57688 10.16497 5487 ft 286 kts 49°
2026-05-04 19:37 53.58956 10.19047 5170 ft 283 kts 49°
2026-05-04 19:37 53.60211 10.21579 5017 ft 281 kts 49°
2026-05-04 19:38 53.61449 10.24074 5001 ft 282 kts 49°
2026-05-04 19:38 53.62708 10.26603 4998 ft 282 kts 49°
2026-05-04 19:38 53.63965 10.29132 4996 ft 282 kts 49°
2026-05-04 19:38 53.65223 10.31662 4978 ft 281 kts 49°
2026-05-04 19:39 53.66459 10.34154 4958 ft 269 kts 49°
2026-05-04 19:39 53.67620 10.36497 4960 ft 253 kts 49°
2026-05-04 19:39 53.68735 10.38751 4977 ft 249 kts 49°
2026-05-04 19:39 53.69846 10.40996 4964 ft 249 kts 49°
2026-05-04 19:40 53.70958 10.43247 4979 ft 250 kts 49°
2026-05-04 19:40 53.72067 10.45493 4980 ft 249 kts 49°
2026-05-04 19:40 53.73176 10.47744 4976 ft 249 kts 49°
2026-05-04 19:40 53.74283 10.49987 4976 ft 248 kts 49°
2026-05-04 19:41 53.75372 10.52197 4973 ft 248 kts 49°
2026-05-04 19:41 53.76478 10.54440 4975 ft 248 kts 49°
2026-05-04 19:41 53.77617 10.56624 4958 ft 248 kts 41°
2026-05-04 19:41 53.79007 10.58304 4963 ft 244 kts 22°
2026-05-04 19:42 53.80634 10.58821 4984 ft 236 kts 351°
2026-05-04 19:42 53.82124 10.57885 4967 ft 227 kts 320°
2026-05-04 19:42 53.83055 10.55821 4984 ft 221 kts 288°
2026-05-04 19:42 53.83251 10.53266 4979 ft 220 kts 268°
2026-05-04 19:43 53.83147 10.50680 4984 ft 221 kts 264°
2026-05-04 19:43 53.83004 10.48101 4974 ft 221 kts 264°
2026-05-04 19:43 53.82860 10.45546 4982 ft 221 kts 264°
2026-05-04 19:43 53.82716 10.42965 4983 ft 220 kts 264°
2026-05-04 19:44 53.82556 10.40390 4975 ft 220 kts 261°
2026-05-04 19:44 53.82008 10.37978 4976 ft 220 kts 241°
2026-05-04 19:44 53.81150 10.35822 4976 ft 221 kts 234°
2026-05-04 19:44 53.80186 10.33782 4976 ft 222 kts 233°
2026-05-04 19:45 53.79202 10.31763 4912 ft 224 kts 231°
2026-05-04 19:45 53.78220 10.29749 4680 ft 220 kts 231°
2026-05-04 19:45 53.77245 10.27750 4362 ft 219 kts 231°
2026-05-04 19:45 53.76282 10.25784 4006 ft 212 kts 231°
2026-05-04 19:46 53.75387 10.23959 3687 ft 191 kts 232°
2026-05-04 19:46 53.74574 10.22299 3485 ft 176 kts 232°
2026-05-04 19:46 53.73826 10.20773 3239 ft 168 kts 232°
2026-05-04 19:46 53.73087 10.19265 2985 ft 163 kts 232°
2026-05-04 19:47 53.72391 10.17849 2785 ft 150 kts 232°
2026-05-04 19:47 53.71717 10.16472 2604 ft 160 kts 232°
2026-05-04 19:47 53.70977 10.14965 2375 ft 170 kts 232°
2026-05-04 19:47 53.70215 10.13415 2137 ft 172 kts 232°
2026-05-04 19:48 53.69448 10.11856 1898 ft 173 kts 232°
2026-05-04 19:48 53.68677 10.10285 1668 ft 174 kts 232°
2026-05-04 19:48 53.67910 10.08726 1430 ft 168 kts 232°
2026-05-04 19:48 53.67194 10.07271 1192 ft 155 kts 232°
2026-05-04 19:49 53.66538 10.05938 1006 ft 145 kts 233°
2026-05-04 19:49 53.65909 10.04662 799 ft 142 kts 233°
2026-05-04 19:49 53.65302 10.03416 595 ft 133 kts 234°
2026-05-04 19:49 53.64720 10.02209 413 ft 133 kts 233°
2026-05-04 19:50 53.64122 10.01013 244 ft 132 kts 232°
2026-05-04 19:50 53.63526 9.99829 96 ft 133 kts 233°
2026-05-04 19:50 53.62966 9.98669 50 ft 113 kts 231°
2026-05-04 19:50 53.62615 9.97975 51 ft 56 kts 232°
2026-05-04 19:51 53.62403 9.97539 47 ft 44 kts 230°
2026-05-04 19:51 53.62273 9.97367 51 ft 11 kts 181°
2026-05-04 19:51 53.62202 9.97427 51 ft 12 kts 131°
2026-05-04 19:51 53.62197 9.97618 55 ft 21 kts 60°
2026-05-04 19:52 53.62291 9.97809 52 ft 22 kts 49°
2026-05-04 19:52 53.62389 9.98014 49 ft 23 kts 51°
2026-05-04 19:52 53.62506 9.98190 49 ft 22 kts 41°
2026-05-04 19:52 53.62606 9.98386 50 ft 22 kts 51°
2026-05-04 19:53 53.62709 9.98593 52 ft 24 kts 50°
2026-05-04 19:53 53.62817 9.98810 51 ft 25 kts 50°
2026-05-04 19:53 53.62926 9.99034 48 ft 25 kts 50°
2026-05-04 19:53 53.63032 9.99247 48 ft 25 kts 50°
2026-05-04 19:54 53.63140 9.99503 49 ft 26 kts 55°
2026-05-04 19:54 53.63257 9.99734 50 ft 26 kts 43°
2026-05-04 19:54 53.63377 9.99966 51 ft 26 kts 50°
2026-05-04 19:54 53.63455 10.00127 50 ft 9 kts 57°
2026-05-04 19:55 53.63428 10.00201 50 ft 17 kts 146°
2026-05-04 19:55 53.63352 10.00202 52 ft 11 kts 187°
2026-05-04 19:55 53.63327 10.00238 55 ft 2 kts 85°
2026-05-04 19:55 53.63352 10.00275 50 ft 7 kts 42°
2026-05-04 19:56 53.63357 10.00297 49 ft 4 kts 81°
2026-05-04 19:56 53.63357 10.00317 49 ft 0 kts 86°
2026-05-04 19:56 53.63358 10.00337 50 ft 0 kts 86°